Home > Time Zones > World Clock > Weather > Oman > Seeb > Past weeks

Flag for Oman Weather past 2 weeks in Seeb, Oman

Now
90 °F

Clear.


Feels Like: 111 °F
Forecast: 88 / 95 °F
Wind: 12 mph from Northeast

Location: International Airport

Current Time: Aug 29, 2015 at 12:05:50 PM

Latest Report: Aug 29, 2015 at 10:50 AM


Visibility: 4 mi

Pressure: 29.68 "Hg

Humidity: 79%

Dew point: 82 °F

Location of SeebLocation

Historic Weather in Seeb — Graph

°F

Seeb temperature yesterday

Maximum temperature yesterday: 102 °F (at 9:00 AM)
Minimum temperature yesterday: 90 °F (at 12:50 AM)
Average temperature yesterday: 92 °F

Past Weeks' High & Low Weather Summary

 TemperatureHumidityPressure
High113 °F (Aug 23, 11:50 AM)89% (Aug 26, 6:50 AM)29.71 "Hg (Aug 26, 6:50 AM)
Low81 °F (Aug 15, 5:50 AM)20% (Aug 23, 11:50 AM)29.50 "Hg (Aug 23, 1:50 PM)
Average94 °F60%29.58 "Hg
* Reported Aug 14 3:50 PM — Aug 29 10:50 AM, Seeb, Weather by CustomWeather, © 2015

Note: Actual official high and low records may vary slightly from our data, if they occured in-between our weather recording intervals... More about our weather records

Advertising

Seeb weather history for previous 24 hours

 ConditionsComfort  
Time TempWeatherWind HumidityBarometerVisibility
10:50 AM
Sat, Aug 29
90 °FClear.12 mph79%29.68 "Hg4 mi
9:50 AM91 °FClear.12 mph75%29.68 "Hg4 mi
8:50 AM91 °FClear.3 mph75%29.65 "Hg4 mi
7:50 AM88 °FClear.9 mph84%29.65 "Hg4 mi
6:50 AM88 °FPassing clouds.9 mph89%29.62 "Hg4 mi
5:50 AM88 °FScattered clouds.9 mph89%29.59 "Hg4 mi
4:50 AM88 °FPassing clouds.6 mph89%29.59 "Hg5 mi
3:50 AM90 °FClear.No wind84%29.56 "Hg5 mi
2:50 AM88 °FClear.No wind89%29.56 "Hg5 mi
1:50 AM90 °FClear.8 mph79%29.56 "Hg10 mi
12:50 AM91 °FClear.No wind63%29.56 "Hg10 mi
11:50 PM
Fri, Aug 28
90 °FClear.2 mph79%29.56 "Hg10 mi
10:50 PM90 °FClear.5 mph79%29.59 "Hg10 mi
9:50 PM91 °FClear.5 mph75%29.59 "Hg10 mi
8:50 PM91 °FClear.7 mph75%29.59 "Hg6 mi
7:50 PM90 °FClear.2 mph79%29.56 "Hg5 mi
6:50 PM90 °FClear.5 mph79%29.56 "Hg5 mi
5:50 PM90 °FClear.9 mph79%29.56 "Hg4 mi
4:50 PM91 °FClear.16 mph75%29.56 "Hg5 mi
3:50 PM93 °FClear.15 mph67%29.56 "Hg5 mi
3:00 PM93 °FClear.16 mph67%29.56 "Hg5 mi
1:50 PM93 °FClear.16 mph67%29.59 "Hg6 mi
1:00 PM93 °FClear.15 mph67%29.59 "Hg6 mi
Weather by CustomWeather, © 2015

See weather overviewHow to use our weather pages